Time,TemperatureF,DewpointF,PressureIn,WindDirection,WindDirectionDegrees,WindSpeedMPH,WindSpeedGustMPH,Humidity,HourlyPrecipIn,Conditions,Clouds,dailyrainin,SoftwareType,DateUTC
2013-03-28 00:02:00,61.3,54.8,29.82,North,0,0.0,0.0,79,0.02,RA,SKC,0.00,WeatherDisplay:10.37,2013-03-27 13:02:00,
2013-03-28 00:07:00,61.3,54.8,29.82,NNW,338,0.0,0.0,79,0.02,RA,SKC,0.00,WeatherDisplay:10.37,2013-03-27 13:07:00,
2013-03-28 00:12:00,61.3,54.8,29.82,NNW,338,0.0,0.0,79,0.02,CLR,SKC,0.00,WeatherDisplay:10.37,2013-03-27 13:12:00,
2013-03-28 00:18:00,61.3,54.4,29.83,NNW,338,0.0,0.0,78,0.02,CLR,SKC,0.00,WeatherDisplay:10.37,2013-03-27 13:18:00,
2013-03-28 00:23:00,61.3,54.4,29.84,NNW,338,0.0,0.0,78,0.00,CLR,SKC,0.00,WeatherDisplay:10.37,2013-03-27 13:23:00,
2013-03-28 00:28:00,61.5,54.9,29.84,NNE,22,0.0,0.0,79,0.00,CLR,SKC,0.00,WeatherDisplay:10.37,2013-03-27 13:28:00,
2013-03-28 00:33:00,61.5,54.9,29.84,NNW,338,0.0,0.0,79,0.00,CLR,SKC,0.00,WeatherDisplay:10.37,2013-03-27 13:33:00,
2013-03-28 00:38:00,61.5,54.9,29.83,SSE,158,0.0,0.0,79,0.00,CLR,SKC,0.00,WeatherDisplay:10.37,2013-03-27 13:38:00,
2013-03-28 00:43:00,61.5,54.9,29.83,South,180,0.0,0.0,79,0.00,CLR,SKC,0.00,WeatherDisplay:10.37,2013-03-27 13:43:00,
2013-03-28 00:48:00,61.3,54.8,29.83,WSW,248,0.0,0.0,79,0.00,CLR,SKC,0.00,WeatherDisplay:10.37,2013-03-27 13:48:00,
2013-03-28 00:53:00,61.3,54.8,29.84,WSW,248,0.0,0.0,79,0.00,CLR,SKC,0.00,WeatherDisplay:10.37,2013-03-27 13:53:00,
2013-03-28 00:58:00,61.2,54.6,29.84,SW,225,0.0,0.0,79,0.00,CLR,SKC,0.00,WeatherDisplay:10.37,2013-03-27 13:58:00,
2013-03-28 01:04:00,61.2,54.6,29.83,South,180,0.0,0.0,79,0.00,CLR,SKC,0.00,WeatherDisplay:10.37,2013-03-27 14:04:00,
2013-03-28 01:09:00,61.0,54.4,29.83,West,270,0.0,0.0,79,0.00,CLR,SKC,0.00,WeatherDisplay:10.37,2013-03-27 14:09:00,
2013-03-28 01:14:00,61.0,54.4,29.84,North,0,0.0,0.0,79,0.00,CLR,SKC,0.00,WeatherDisplay:10.37,2013-03-27 14:14:00,
2013-03-28 01:19:00,61.0,54.4,29.83,NNE,22,0.0,0.0,79,0.00,CLR,SKC,0.00,WeatherDisplay:10.37,2013-03-27 14:19:00,
2013-03-28 01:24:00,61.0,54.4,29.84,NNE,22,0.0,0.0,79,0.00,CLR,SKC,0.00,WeatherDisplay:10.37,2013-03-27 14:24:00,
2013-03-28 01:30:00,61.0,54.4,29.84,NNE,22,0.0,0.0,79,0.00,CLR,SKC,0.00,WeatherDisplay:10.37,2013-03-27 14:30:00,
2013-03-28 01:35:00,60.8,54.2,29.84,NE,36,0.0,0.0,79,0.00,CLR,SKC,0.00,WeatherDisplay:10.37,2013-03-27 14:35:00,
2013-03-28 01:40:00,60.6,54.4,29.84,NE,46,0.0,0.0,80,0.00,CLR,SKC,0.00,WeatherDisplay:10.37,2013-03-27 14:40:00,
2013-03-28 01:45:00,60.6,54.4,29.84,NE,34,0.0,0.0,80,0.00,CLR,SKC,0.00,WeatherDisplay:10.37,2013-03-27 14:45:00,
2013-03-28 01:50:00,60.4,54.2,29.83,NW,315,0.0,0.0,80,0.00,CLR,SKC,0.00,WeatherDisplay:10.37,2013-03-27 14:50:00,
2013-03-28 01:55:00,60.4,54.2,29.83,WSW,248,0.0,0.0,80,0.00,CLR,SKC,0.00,WeatherDisplay:10.37,2013-03-27 14:55:00,
2013-03-28 02:00:00,60.1,53.9,29.83,WSW,248,0.0,0.0,80,0.00,CLR,SKC,0.00,WeatherDisplay:10.37,2013-03-27 15:00:00,
2013-03-28 02:05:00,60.3,54.1,29.84,WSW,248,0.0,0.0,80,0.00,CLR,SKC,0.00,WeatherDisplay:10.37,2013-03-27 15:05:00,
2013-03-28 02:10:00,60.3,54.1,29.83,WSW,248,0.0,0.0,80,0.00,CLR,SKC,0.00,WeatherDisplay:10.37,2013-03-27 15:10:00,
2013-03-28 02:16:00,60.1,54.2,29.84,WSW,248,0.0,0.0,81,0.00,CLR,SKC,0.00,WeatherDisplay:10.37,2013-03-27 15:16:00,
2013-03-28 02:21:00,60.1,54.2,29.84,WSW,248,0.0,0.0,81,0.00,CLR,SKC,0.00,WeatherDisplay:10.37,2013-03-27 15:21:00,
2013-03-28 02:26:00,60.1,54.2,29.83,SW,225,0.0,0.0,81,0.00,CLR,SKC,0.00,WeatherDisplay:10.37,2013-03-27 15:26:00,
2013-03-28 02:31:00,59.9,54.4,29.83,SW,225,0.0,0.0,82,0.00,CLR,SKC,0.00,WeatherDisplay:10.37,2013-03-27 15:31:00,
2013-03-28 02:36:00,59.7,54.2,29.83,SW,225,0.0,0.0,82,0.00,CLR,SKC,0.00,WeatherDisplay:10.37,2013-03-27 15:36:00,
2013-03-28 02:41:00,59.7,54.2,29.83,SW,225,0.0,0.0,82,0.00,CLR,SKC,0.00,WeatherDisplay:10.37,2013-03-27 15:41:00,
2013-03-28 02:46:00,59.5,54.0,29.83,SW,225,0.0,0.0,82,0.00,CLR,SKC,0.00,WeatherDisplay:10.37,2013-03-27 15:46:00,
2013-03-28 02:51:00,59.5,54.0,29.83,SW,225,0.0,0.0,82,0.00,CLR,SKC,0.00,WeatherDisplay:10.37,2013-03-27 15:51:00,
2013-03-28 02:56:00,59.4,53.9,29.83,SW,225,0.0,0.0,82,0.00,CLR,SKC,0.00,WeatherDisplay:10.37,2013-03-27 15:56:00,
2013-03-28 03:01:00,59.5,54.4,29.83,South,180,0.0,0.0,83,0.00,CLR,SKC,0.00,WeatherDisplay:10.37,2013-03-27 16:01:00,
2013-03-28 03:06:00,59.4,54.2,29.83,South,180,0.0,0.0,83,0.00,CLR,SKC,0.00,WeatherDisplay:10.37,2013-03-27 16:06:00,
2013-03-28 03:11:00,59.4,54.2,29.83,SSW,202,0.0,0.0,83,0.00,CLR,SKC,0.00,WeatherDisplay:10.37,2013-03-27 16:11:00,
2013-03-28 03:17:00,59.2,54.0,29.83,South,180,2.3,2.3,83,0.00,CLR,SKC,0.00,WeatherDisplay:10.37,2013-03-27 16:17:00,
2013-03-28 03:22:00,59.0,53.8,29.84,SW,225,0.9,0.0,83,0.00,CLR,SKC,0.00,WeatherDisplay:10.37,2013-03-27 16:22:00,
2013-03-28 03:27:00,58.8,53.7,29.84,SW,225,1.1,1.1,83,0.00,CLR,SKC,0.00,WeatherDisplay:10.37,2013-03-27 16:27:00,
2013-03-28 03:32:00,58.6,53.5,29.84,SW,225,0.0,0.0,83,0.00,CLR,SKC,0.00,WeatherDisplay:10.37,2013-03-27 16:32:00,
2013-03-28 03:37:00,58.5,53.3,29.84,SW,225,1.3,1.3,83,0.00,CLR,SKC,0.00,WeatherDisplay:10.37,2013-03-27 16:37:00,
2013-03-28 03:42:00,58.3,53.1,29.83,WSW,248,2.5,2.5,83,0.00,CLR,SKC,0.00,WeatherDisplay:10.37,2013-03-27 16:42:00,
2013-03-28 03:47:00,57.9,52.8,29.83,WSW,248,2.3,0.0,83,0.00,CLR,SKC,0.00,WeatherDisplay:10.37,2013-03-27 16:47:00,
2013-03-28 03:52:00,57.6,52.4,29.83,West,270,1.1,1.1,83,0.00,CLR,SKC,0.00,WeatherDisplay:10.37,2013-03-27 16:52:00,
2013-03-28 03:57:00,57.4,52.6,29.83,South,180,0.0,0.0,84,0.00,CLR,SKC,0.00,WeatherDisplay:10.37,2013-03-27 16:57:00,
2013-03-28 04:02:00,57.0,52.2,29.83,WSW,248,0.0,0.0,84,0.00,CLR,SKC,0.00,WeatherDisplay:10.37,2013-03-27 17:02:00,
2013-03-28 04:07:00,56.8,52.1,29.84,SW,225,0.0,0.0,84,0.00,CLR,SKC,0.00,WeatherDisplay:10.37,2013-03-27 17:07:00,
2013-03-28 04:13:00,56.8,52.1,29.84,SSW,202,0.0,0.0,84,0.00,CLR,SKC,0.00,WeatherDisplay:10.37,2013-03-27 17:13:00,
2013-03-28 04:18:00,56.8,52.1,29.85,SSW,202,0.0,0.0,84,0.00,CLR,SKC,0.00,WeatherDisplay:10.37,2013-03-27 17:18:00,
2013-03-28 04:23:00,56.8,52.1,29.85,SW,225,0.0,0.0,84,0.00,CLR,SKC,0.00,WeatherDisplay:10.37,2013-03-27 17:23:00,
2013-03-28 04:28:00,56.7,51.9,29.85,SW,225,0.0,0.0,84,0.00,CLR,SKC,0.00,WeatherDisplay:10.37,2013-03-27 17:28:00,
2013-03-28 04:33:00,56.5,52.0,29.85,SSW,202,0.0,0.0,85,0.00,CLR,SKC,0.00,WeatherDisplay:10.37,2013-03-27 17:33:00,
2013-03-28 04:38:00,56.3,51.8,29.85,SSW,202,0.0,0.0,85,0.00,CLR,SKC,0.00,WeatherDisplay:10.37,2013-03-27 17:38:00,
2013-03-28 04:43:00,56.1,51.4,29.84,SSW,202,2.3,0.0,84,0.00,CLR,SKC,0.00,WeatherDisplay:10.37,2013-03-27 17:43:00,
2013-03-28 04:48:00,55.9,51.2,29.84,South,180,0.0,0.0,84,0.00,CLR,SKC,0.00,WeatherDisplay:10.37,2013-03-27 17:48:00,
2013-03-28 04:53:00,55.8,51.0,29.84,SW,225,0.0,0.0,84,0.00,CLR,SKC,0.00,WeatherDisplay:10.37,2013-03-27 17:53:00,
2013-03-28 04:59:00,55.6,50.8,29.85,South,180,0.0,0.0,84,0.00,CLR,SKC,0.00,WeatherDisplay:10.37,2013-03-27 17:59:00,
2013-03-28 05:04:00,55.6,50.8,29.84,WSW,248,0.0,0.0,84,0.00,CLR,SKC,0.00,WeatherDisplay:10.37,2013-03-27 18:04:00,
2013-03-28 05:09:00,55.2,50.5,29.85,WSW,248,0.0,0.0,84,0.00,CLR,SKC,0.00,WeatherDisplay:10.37,2013-03-27 18:09:00,
2013-03-28 05:14:00,55.2,50.5,29.85,WSW,248,0.0,0.0,84,0.00,CLR,SKC,0.00,WeatherDisplay:10.37,2013-03-27 18:14:00,
2013-03-28 05:19:00,55.0,50.3,29.85,SW,225,0.0,0.0,84,0.00,CLR,SKC,0.00,WeatherDisplay:10.37,2013-03-27 18:19:00,
2013-03-28 05:24:00,55.0,50.3,29.86,SSE,158,0.0,0.0,84,0.00,CLR,SKC,0.00,WeatherDisplay:10.37,2013-03-27 18:24:00,
2013-03-28 05:30:00,54.9,50.1,29.87,SSE,158,2.3,2.3,84,0.00,CLR,SKC,0.00,WeatherDisplay:10.37,2013-03-27 18:30:00,
2013-03-28 05:35:00,54.7,50.2,29.86,South,185,1.0,2.0,85,0.00,CLR,SKC,0.00,WeatherDisplay:10.37,2013-03-27 18:35:00,
2013-03-28 05:40:00,54.5,50.1,29.86,SSW,206,0.0,1.0,85,0.00,CLR,SKC,0.00,WeatherDisplay:10.37,2013-03-27 18:40:00,
2013-03-28 05:45:00,54.3,49.6,29.86,South,187,0.0,2.0,84,0.00,CLR,SKC,0.00,WeatherDisplay:10.37,2013-03-27 18:45:00,
2013-03-28 05:50:00,54.3,49.9,29.87,SSW,195,0.0,2.0,85,0.00,CLR,SKC,0.00,WeatherDisplay:10.37,2013-03-27 18:50:00,
2013-03-28 05:55:00,54.2,49.5,29.87,SSW,192,0.0,1.0,84,0.00,CLR,SKC,0.00,WeatherDisplay:10.37,2013-03-27 18:55:00,
2013-03-28 06:00:00,54.1,49.4,29.87,SW,225,1.1,1.1,84,0.00,CLR,SKC,0.00,WeatherDisplay:10.37,2013-03-27 19:00:00,
2013-03-28 06:05:00,54.0,49.2,29.87,South,180,2.3,2.3,84,0.00,CLR,SKC,0.00,WeatherDisplay:10.37,2013-03-27 19:05:00,
2013-03-28 06:10:00,53.8,49.1,29.88,South,180,0.0,0.0,84,0.00,CLR,SKC,0.00,WeatherDisplay:10.37,2013-03-27 19:10:00,
2013-03-28 06:15:00,53.8,49.1,29.88,SSE,158,0.0,0.0,84,0.00,CLR,SKC,0.00,WeatherDisplay:10.37,2013-03-27 19:15:00,
2013-03-28 06:20:00,53.8,49.1,29.88,SW,225,1.1,1.1,84,0.00,CLR,SKC,0.00,WeatherDisplay:10.37,2013-03-27 19:20:00,
2013-03-28 06:25:00,53.8,49.1,29.87,South,180,0.0,0.0,84,0.00,CLR,SKC,0.00,WeatherDisplay:10.37,2013-03-27 19:25:00,
2013-03-28 06:30:00,53.4,48.7,29.88,SSE,158,1.1,1.1,84,0.00,CLR,SKC,0.00,WeatherDisplay:10.37,2013-03-27 19:30:00,
2013-03-28 06:35:00,53.4,48.4,29.88,ESE,112,0.0,0.0,83,0.00,CLR,SKC,0.00,WeatherDisplay:10.37,2013-03-27 19:35:00,
2013-03-28 06:41:00,53.2,48.2,29.87,NE,45,0.0,0.0,83,0.00,CLR,SKC,0.00,WeatherDisplay:10.37,2013-03-27 19:41:00,
2013-03-28 06:46:00,53.2,48.2,29.88,South,180,0.0,0.0,83,0.00,CLR,SKC,0.00,WeatherDisplay:10.37,2013-03-27 19:46:00,
2013-03-28 06:51:00,53.1,48.0,29.88,South,180,0.0,0.0,83,0.00,CLR,SKC,0.00,WeatherDisplay:10.37,2013-03-27 19:51:00,
2013-03-28 06:56:00,52.9,47.9,29.88,NE,45,0.0,0.0,83,0.00,CLR,SKC,0.00,WeatherDisplay:10.37,2013-03-27 19:56:00,
2013-03-28 07:01:00,53.2,47.9,29.89,NNE,22,0.0,0.0,82,0.00,CLR,SKC,0.00,WeatherDisplay:10.37,2013-03-27 20:01:00,
2013-03-28 07:06:00,53.2,47.9,29.89,NE,45,0.0,0.0,82,0.00,CLR,SKC,0.00,WeatherDisplay:10.37,2013-03-27 20:06:00,
2013-03-28 07:11:00,53.4,48.1,29.89,NNE,22,0.0,0.0,82,0.00,CLR,SKC,0.00,WeatherDisplay:10.37,2013-03-27 20:11:00,
2013-03-28 07:16:00,53.4,48.1,29.89,NNE,22,0.0,0.0,82,0.00,CLR,SKC,0.00,WeatherDisplay:10.37,2013-03-27 20:16:00,
2013-03-28 07:22:00,53.4,48.1,29.89,NW,315,0.0,0.0,82,0.00,CLR,SKC,0.00,WeatherDisplay:10.37,2013-03-27 20:22:00,
2013-03-28 07:27:00,53.4,48.1,29.89,ENE,68,0.0,0.0,82,0.00,CLR,SKC,0.00,WeatherDisplay:10.37,2013-03-27 20:27:00,
2013-03-28 07:32:00,53.4,48.1,29.90,ENE,68,0.0,0.0,82,0.00,CLR,SKC,0.00,WeatherDisplay:10.37,2013-03-27 20:32:00,
2013-03-28 07:37:00,53.2,47.6,29.90,NE,45,0.0,0.0,81,0.00,CLR,SKC,0.00,WeatherDisplay:10.37,2013-03-27 20:37:00,
2013-03-28 07:42:00,53.2,47.6,29.90,SSE,158,0.0,0.0,81,0.00,CLR,SKC,0.00,WeatherDisplay:10.37,2013-03-27 20:42:00,
2013-03-28 07:47:00,52.9,47.2,29.90,NE,45,0.0,0.0,81,0.00,CLR,SKC,0.00,WeatherDisplay:10.37,2013-03-27 20:47:00,
2013-03-28 07:52:00,52.7,47.4,29.90,SE,135,0.0,0.0,82,0.00,CLR,SKC,0.00,WeatherDisplay:10.37,2013-03-27 20:52:00,
2013-03-28 07:58:00,52.5,46.9,29.90,SSW,202,0.0,0.0,81,0.00,CLR,SKC,0.00,WeatherDisplay:10.37,2013-03-27 20:58:00,
2013-03-28 08:03:00,52.3,47.0,29.90,SSE,158,0.0,0.0,82,0.00,CLR,SKC,0.00,WeatherDisplay:10.37,2013-03-27 21:03:00,
2013-03-28 08:08:00,52.3,47.0,29.90,SE,135,0.0,0.0,82,0.00,CLR,SKC,0.00,WeatherDisplay:10.37,2013-03-27 21:08:00,
2013-03-28 08:13:00,52.3,47.0,29.90,NE,45,0.0,0.0,82,0.00,CLR,SKC,0.00,WeatherDisplay:10.37,2013-03-27 21:13:00,
2013-03-28 08:18:00,52.3,47.0,29.90,NE,45,0.0,0.0,82,0.00,CLR,SKC,0.00,WeatherDisplay:10.37,2013-03-27 21:18:00,
2013-03-28 08:23:00,52.5,47.2,29.89,East,90,0.0,0.0,82,0.00,CLR,SKC,0.00,WeatherDisplay:10.37,2013-03-27 21:23:00,
2013-03-28 08:29:00,52.5,47.2,29.90,East,90,0.0,0.0,82,0.00,CLR,SKC,0.00,WeatherDisplay:10.37,2013-03-27 21:29:00,
2013-03-28 08:34:00,52.7,47.4,29.90,ENE,68,0.0,0.0,82,0.00,CLR,SKC,0.00,WeatherDisplay:10.37,2013-03-27 21:34:00,
2013-03-28 08:39:00,52.9,47.5,29.91,WSW,248,0.0,0.0,82,0.00,CLR,SKC,0.00,WeatherDisplay:10.37,2013-03-27 21:39:00,
2013-03-28 08:44:00,52.9,47.5,29.91,SE,135,0.0,0.0,82,0.00,CLR,SKC,0.00,WeatherDisplay:10.37,2013-03-27 21:44:00,
2013-03-28 08:49:00,52.9,47.5,29.91,SE,135,0.0,0.0,82,0.00,CLR,SKC,0.00,WeatherDisplay:10.37,2013-03-27 21:49:00,
2013-03-28 08:54:00,52.9,47.5,29.91,South,180,0.0,0.0,82,0.00,CLR,SKC,0.00,WeatherDisplay:10.37,2013-03-27 21:54:00,
2013-03-28 08:59:00,52.9,47.2,29.91,SSE,158,2.3,2.3,81,0.00,CLR,SKC,0.00,WeatherDisplay:10.37,2013-03-27 21:59:00,
2013-03-28 09:05:00,52.9,47.2,29.91,SSW,202,0.0,0.0,81,0.00,CLR,SKC,0.00,WeatherDisplay:10.37,2013-03-27 22:05:00,
2013-03-28 09:10:00,53.2,47.6,29.91,ESE,112,1.1,1.1,81,0.00,CLR,SKC,0.00,WeatherDisplay:10.37,2013-03-27 22:10:00,
2013-03-28 09:15:00,53.1,47.4,29.91,SSE,165,0.0,1.0,81,0.00,CLR,SKC,0.00,WeatherDisplay:10.37,2013-03-27 22:15:00,
2013-03-28 09:20:00,53.2,47.6,29.91,SSE,152,1.0,1.0,81,0.00,CLR,SKC,0.00,WeatherDisplay:10.37,2013-03-27 22:20:00,
2013-03-28 09:25:00,53.2,47.6,29.91,SSE,164,0.0,0.0,81,0.00,CLR,SKC,0.00,WeatherDisplay:10.37,2013-03-27 22:25:00,
2013-03-28 09:30:00,53.2,47.6,29.91,SSW,202,0.0,0.0,81,0.00,CLR,SKC,0.00,WeatherDisplay:10.37,2013-03-27 22:30:00,
2013-03-28 09:35:00,53.4,47.7,29.90,South,185,0.0,2.0,81,0.00,CLR,SKC,0.00,WeatherDisplay:10.37,2013-03-27 22:35:00,
2013-03-28 09:40:00,53.4,47.7,29.90,SE,134,0.0,2.0,81,0.00,CLR,SKC,0.00,WeatherDisplay:10.37,2013-03-27 22:40:00,
2013-03-28 09:45:00,53.8,48.1,29.90,SSE,158,0.0,0.0,81,0.00,CLR,SKC,0.00,WeatherDisplay:10.37,2013-03-27 22:45:00,
2013-03-28 09:50:00,53.8,47.8,29.90,SSW,210,0.0,2.0,80,0.00,CLR,SKC,0.00,WeatherDisplay:10.37,2013-03-27 22:50:00,
2013-03-28 09:55:00,54.0,47.9,29.91,SSE,158,0.0,2.0,80,0.00,CLR,SKC,0.00,WeatherDisplay:10.37,2013-03-27 22:55:00,
2013-03-28 10:00:00,54.1,48.4,29.91,SSE,167,2.0,2.0,81,0.00,CLR,SKC,0.00,WeatherDisplay:10.37,2013-03-27 23:00:00,
2013-03-28 10:05:00,54.4,48.6,29.92,SSW,203,2.0,2.0,81,0.00,CLR,SKC,0.00,WeatherDisplay:10.37,2013-03-27 23:05:00,
2013-03-28 10:10:00,55.0,49.0,29.91,SSW,194,3.0,4.0,80,0.00,CLR,SKC,0.00,WeatherDisplay:10.37,2013-03-27 23:10:00,
2013-03-28 10:15:00,55.6,49.2,29.91,SSW,197,0.0,4.0,79,0.00,CLR,SKC,0.00,WeatherDisplay:10.37,2013-03-27 23:15:00,
2013-03-28 10:20:00,56.0,49.6,29.91,SSW,192,0.0,2.0,79,0.00,CLR,SKC,0.00,WeatherDisplay:10.37,2013-03-27 23:20:00,
2013-03-28 10:25:00,56.5,49.7,29.92,NE,45,3.5,0.0,78,0.00,CLR,SKC,0.00,WeatherDisplay:10.37,2013-03-27 23:25:00,
2013-03-28 10:30:00,56.8,49.7,29.92,SSW,202,2.3,2.3,77,0.00,CLR,SKC,0.00,WeatherDisplay:10.37,2013-03-27 23:30:00,
2013-03-28 10:35:00,57.0,49.5,29.91,South,180,3.8,3.8,76,0.00,CLR,SKC,0.00,WeatherDisplay:10.37,2013-03-27 23:35:00,
2013-03-28 10:40:00,57.4,49.9,29.92,SSW,202,2.3,2.3,76,0.00,CLR,SKC,0.00,WeatherDisplay:10.37,2013-03-27 23:40:00,
2013-03-28 10:46:00,57.9,50.0,29.92,SW,225,2.3,2.3,75,0.00,CLR,SKC,0.00,WeatherDisplay:10.37,2013-03-27 23:46:00,
2013-03-28 10:51:00,58.1,49.9,29.92,SSW,202,2.3,2.3,74,0.00,CLR,SKC,0.00,WeatherDisplay:10.37,2013-03-27 23:51:00,
2013-03-28 10:56:00,58.8,50.5,29.92,SW,225,1.1,1.1,74,0.00,CLR,SKC,0.00,WeatherDisplay:10.37,2013-03-27 23:56:00,
2013-03-28 11:01:00,59.2,50.2,29.92,East,90,2.3,2.3,72,0.00,CLR,SKC,0.00,WeatherDisplay:10.37,2013-03-28 00:01:00,
2013-03-28 11:06:00,59.4,50.0,29.92,South,180,3.6,3.6,71,0.00,CLR,SKC,0.00,WeatherDisplay:10.37,2013-03-28 00:06:00,
2013-03-28 11:11:00,59.7,50.3,29.91,SSE,158,2.3,2.3,71,0.00,CLR,SKC,0.02,WeatherDisplay:10.37,2013-03-28 00:11:00,
2013-03-28 11:16:00,60.4,50.6,29.92,WSW,248,3.5,0.0,70,0.02,RA,SKC,0.02,WeatherDisplay:10.37,2013-03-28 00:16:00,
2013-03-28 11:22:00,60.6,49.2,29.92,WSW,248,3.8,3.8,66,0.02,,SKC,0.02,WeatherDisplay:10.37,2013-03-28 00:22:00,
2013-03-28 11:27:00,60.6,48.8,29.92,SSW,202,4.0,4.0,65,0.02,CLR,SKC,0.02,WeatherDisplay:10.37,2013-03-28 00:27:00,
2013-03-28 11:32:00,60.6,48.4,29.91,NE,45,2.3,2.3,64,0.02,CLR,SKC,0.02,WeatherDisplay:10.37,2013-03-28 00:32:00,
2013-03-28 11:37:00,60.1,47.9,29.91,WNW,292,2.3,2.3,64,0.02,CLR,SKC,0.02,WeatherDisplay:10.37,2013-03-28 00:37:00,
2013-03-28 11:42:00,60.4,48.2,29.91,SW,225,9.2,0.0,64,0.02,CLR,SKC,0.02,WeatherDisplay:10.37,2013-03-28 00:42:00,
2013-03-28 11:47:00,60.6,47.9,29.91,SE,135,3.5,3.5,63,0.02,CLR,SKC,0.02,WeatherDisplay:10.37,2013-03-28 00:47:00,
2013-03-28 11:52:00,60.6,47.5,29.91,SSE,158,3.5,3.5,62,0.02,CLR,SKC,0.02,WeatherDisplay:10.37,2013-03-28 00:52:00,
2013-03-28 11:58:00,60.6,47.5,29.91,WSW,248,3.5,3.5,62,0.02,CLR,SKC,0.02,WeatherDisplay:10.37,2013-03-28 00:58:00,
2013-03-28 12:03:00,60.8,48.1,29.91,SW,225,3.5,3.5,63,0.02,CLR,SKC,0.02,WeatherDisplay:10.37,2013-03-28 01:03:00,
2013-03-28 12:08:00,61.0,47.9,29.91,SSW,202,8.1,8.1,62,0.02,CLR,SKC,0.02,WeatherDisplay:10.37,2013-03-28 01:08:00,
2013-03-28 12:13:00,61.0,47.4,29.92,South,180,3.8,3.8,61,0.00,CLR,SKC,0.02,WeatherDisplay:10.37,2013-03-28 01:13:00,
2013-03-28 12:18:00,61.0,47.4,29.92,SW,225,4.6,4.7,61,0.00,CLR,SKC,0.02,WeatherDisplay:10.37,2013-03-28 01:18:00,
2013-03-28 12:23:00,61.2,47.6,29.91,SW,225,5.8,5.8,61,0.00,CLR,SKC,0.02,WeatherDisplay:10.37,2013-03-28 01:23:00,
2013-03-28 12:28:00,61.5,47.5,29.91,SW,225,3.5,3.5,60,0.00,CLR,SKC,0.02,WeatherDisplay:10.37,2013-03-28 01:28:00,
2013-03-28 12:33:00,61.9,47.8,29.91,SSW,202,8.1,8.1,60,0.00,CLR,SKC,0.02,WeatherDisplay:10.37,2013-03-28 01:33:00,
2013-03-28 12:38:00,61.9,47.8,29.91,WSW,248,4.6,4.6,60,0.00,CLR,SKC,0.02,WeatherDisplay:10.37,2013-03-28 01:38:00,
2013-03-28 12:43:00,61.3,46.9,29.92,SW,225,6.7,6.7,59,0.00,CLR,SKC,0.02,WeatherDisplay:10.37,2013-03-28 01:43:00,
2013-03-28 12:48:00,60.6,46.7,29.92,SW,225,5.8,5.8,60,0.00,CLR,SKC,0.02,WeatherDisplay:10.37,2013-03-28 01:48:00,
2013-03-28 12:53:00,60.1,46.6,29.92,SSE,158,3.5,3.5,61,0.00,CLR,SKC,0.02,WeatherDisplay:10.37,2013-03-28 01:53:00,
2013-03-28 12:58:00,59.9,46.8,29.92,SE,135,2.3,2.3,62,0.00,CLR,SKC,0.02,WeatherDisplay:10.37,2013-03-28 01:58:00,
2013-03-28 13:04:00,59.5,46.5,29.92,SSE,158,3.6,3.6,62,0.00,CLR,SKC,0.02,WeatherDisplay:10.37,2013-03-28 02:04:00,
2013-03-28 13:09:00,59.5,47.3,29.92,SE,135,1.1,1.1,64,0.00,CLR,SKC,0.02,WeatherDisplay:10.37,2013-03-28 02:09:00,
2013-03-28 13:14:00,60.4,47.8,29.92,SSW,202,9.2,9.2,63,0.00,CLR,SKC,0.02,WeatherDisplay:10.37,2013-03-28 02:14:00,
2013-03-28 13:19:00,61.7,47.7,29.92,South,180,3.8,3.8,60,0.00,CLR,SKC,0.02,WeatherDisplay:10.37,2013-03-28 02:19:00,
2013-03-28 13:24:00,62.4,47.0,29.91,SE,135,3.5,3.5,57,0.00,CLR,SKC,0.02,WeatherDisplay:10.37,2013-03-28 02:24:00,
2013-03-28 13:29:00,63.1,47.2,29.91,SW,225,4.7,4.7,56,0.00,CLR,SKC,0.02,WeatherDisplay:10.37,2013-03-28 02:29:00,
2013-03-28 13:34:00,63.7,46.2,29.91,SSE,158,2.5,2.5,53,0.00,CLR,SKC,0.02,WeatherDisplay:10.37,2013-03-28 02:34:00,
2013-03-28 13:39:00,64.2,45.2,29.91,SSW,202,3.5,3.5,50,0.00,CLR,SKC,0.02,WeatherDisplay:10.37,2013-03-28 02:39:00,
2013-03-28 13:45:00,64.8,45.1,29.91,SSW,201,2.0,8.0,49,0.00,CLR,SKC,0.02,WeatherDisplay:10.37,2013-03-28 02:45:00,
2013-03-28 13:50:00,65.0,45.4,29.91,South,184,3.0,5.0,49,0.00,CLR,SKC,0.02,WeatherDisplay:10.37,2013-03-28 02:50:00,
2013-03-28 13:55:00,65.5,44.1,29.91,South,183,2.0,3.0,46,0.00,CLR,SKC,0.02,WeatherDisplay:10.37,2013-03-28 02:55:00,
2013-03-28 14:00:00,64.9,43.1,29.92,SSW,194,10.0,11.0,45,0.00,CLR,SKC,0.02,WeatherDisplay:10.37,2013-03-28 03:00:00,
2013-03-28 14:05:00,64.5,44.9,29.93,SW,220,8.0,12.0,49,0.00,CLR,SKC,0.02,WeatherDisplay:10.37,2013-03-28 03:05:00,
2013-03-28 14:10:00,60.6,43.9,29.93,SW,221,7.0,8.0,54,0.00,CLR,SKC,0.02,WeatherDisplay:10.37,2013-03-28 03:10:00,
2013-03-28 14:15:00,60.1,44.3,29.94,South,191,3.0,7.0,56,0.00,CLR,SKC,0.02,WeatherDisplay:10.37,2013-03-28 03:15:00,
2013-03-28 14:20:00,59.5,43.8,29.94,SSW,193,3.0,8.0,56,0.00,CLR,SKC,0.02,WeatherDisplay:10.37,2013-03-28 03:20:00,
2013-03-28 14:25:00,59.4,44.1,29.94,SW,219,10.0,15.0,57,0.00,CLR,SKC,0.02,WeatherDisplay:10.37,2013-03-28 03:25:00,
2013-03-28 14:30:00,59.5,44.3,29.94,SW,214,3.0,3.0,57,0.00,CLR,SKC,0.02,WeatherDisplay:10.37,2013-03-28 03:30:00,
2013-03-28 14:35:00,59.1,43.4,29.95,SSW,208,5.0,5.0,56,0.00,CLR,SKC,0.02,WeatherDisplay:10.37,2013-03-28 03:35:00,
2013-03-28 14:40:00,58.3,44.0,29.95,SSW,197,5.0,7.0,59,0.00,CLR,SKC,0.02,WeatherDisplay:10.37,2013-03-28 03:40:00,
2013-03-28 14:45:00,57.0,45.0,29.94,SSE,162,6.0,10.0,64,0.00,CLR,SKC,0.02,WeatherDisplay:10.37,2013-03-28 03:45:00,
2013-03-28 14:50:00,56.2,45.0,29.95,SSE,166,3.0,5.0,66,0.00,CLR,SKC,0.02,WeatherDisplay:10.37,2013-03-28 03:50:00,
2013-03-28 14:55:00,55.2,44.9,29.95,SSW,211,3.0,3.0,68,0.00,CLR,SKC,0.02,WeatherDisplay:10.37,2013-03-28 03:55:00,
2013-03-28 15:00:00,55.0,45.1,29.94,SSE,158,1.1,0.0,69,0.00,CLR,SKC,0.02,WeatherDisplay:10.37,2013-03-28 04:00:00,
2013-03-28 15:01:00,54.7,44.7,29.94,SW,225,2.5,2.5,69,0.00,CLR,SKC,0.02,WeatherDisplay:10.37,2013-03-28 04:01:00,
2013-03-28 15:06:00,54.9,45.3,29.94,West,270,1.1,1.1,70,0.00,CLR,SKC,0.02,WeatherDisplay:10.37,2013-03-28 04:06:00,
2013-03-28 15:12:00,55.0,45.4,29.93,SSE,158,2.3,2.3,70,0.00,CLR,SKC,0.02,WeatherDisplay:10.37,2013-03-28 04:12:00,
2013-03-28 15:17:00,55.6,45.9,29.93,South,180,3.5,3.5,70,0.00,CLR,SKC,0.02,WeatherDisplay:10.37,2013-03-28 04:17:00,
2013-03-28 15:22:00,56.1,46.1,29.93,WNW,292,5.8,5.8,69,0.00,CLR,SKC,0.02,WeatherDisplay:10.37,2013-03-28 04:22:00,
2013-03-28 15:27:00,56.5,46.0,29.93,SW,225,4.0,4.0,68,0.00,CLR,SKC,0.02,WeatherDisplay:10.37,2013-03-28 04:27:00,
2013-03-28 15:32:00,56.5,46.0,29.93,SSW,202,4.7,4.7,68,0.00,CLR,SKC,0.02,WeatherDisplay:10.37,2013-03-28 04:32:00,
2013-03-28 15:37:00,56.5,45.7,29.93,SSW,202,4.6,4.6,67,0.00,CLR,SKC,0.02,WeatherDisplay:10.37,2013-03-28 04:37:00,
2013-03-28 15:42:00,56.3,45.5,29.94,WSW,248,3.5,3.5,67,0.00,CLR,SKC,0.02,WeatherDisplay:10.37,2013-03-28 04:42:00,
2013-03-28 15:47:00,55.9,45.5,29.94,WSW,248,2.5,2.5,68,0.00,CLR,SKC,0.02,WeatherDisplay:10.37,2013-03-28 04:47:00,
2013-03-28 15:52:00,55.2,45.2,29.94,SSE,158,1.1,1.1,69,0.00,CLR,SKC,0.02,WeatherDisplay:10.37,2013-03-28 04:52:00,
2013-03-28 15:57:00,54.7,45.5,29.94,ESE,112,1.1,1.1,71,0.00,CLR,SKC,0.02,WeatherDisplay:10.37,2013-03-28 04:57:00,
2013-03-28 16:03:00,54.3,45.5,29.94,WSW,248,5.8,5.8,72,0.00,CLR,SKC,0.02,WeatherDisplay:10.37,2013-03-28 05:03:00,
2013-03-28 16:08:00,54.3,45.8,29.93,SW,225,2.3,2.3,73,0.00,CLR,SKC,0.02,WeatherDisplay:10.37,2013-03-28 05:08:00,
2013-03-28 16:13:00,55.2,46.3,29.93,SSE,158,1.3,1.3,72,0.00,CLR,SKC,0.02,WeatherDisplay:10.37,2013-03-28 05:13:00,
2013-03-28 16:18:00,55.6,46.7,29.93,SSW,202,4.6,4.6,72,0.00,CLR,SKC,0.02,WeatherDisplay:10.37,2013-03-28 05:18:00,
2013-03-28 16:23:00,55.6,45.6,29.95,WSW,248,5.8,5.8,69,0.00,CLR,SKC,0.02,WeatherDisplay:10.37,2013-03-28 05:23:00,
2013-03-28 16:28:00,54.7,44.7,29.95,SSE,158,6.9,6.9,69,0.00,CLR,SKC,0.02,WeatherDisplay:10.37,2013-03-28 05:28:00,
2013-03-28 16:33:00,54.3,44.4,29.95,SW,225,3.5,3.5,69,0.00,CLR,SKC,0.02,WeatherDisplay:10.37,2013-03-28 05:33:00,
2013-03-28 16:39:00,54.3,44.0,29.94,SSW,202,4.6,4.6,68,0.02,RA,SKC,0.04,WeatherDisplay:10.37,2013-03-28 05:39:00,
2013-03-28 16:44:00,54.5,43.8,29.95,SSW,202,1.1,1.1,67,0.02,RA,SKC,0.04,WeatherDisplay:10.37,2013-03-28 05:44:00,
2013-03-28 16:49:00,54.9,44.1,29.95,WSW,248,3.6,3.6,67,0.02,CLR,SKC,0.04,WeatherDisplay:10.37,2013-03-28 05:49:00,
2013-03-28 16:54:00,55.0,43.9,29.95,East,90,2.3,2.3,66,0.02,CLR,SKC,0.04,WeatherDisplay:10.37,2013-03-28 05:54:00,
2013-03-28 16:59:00,55.8,43.8,29.95,ESE,112,1.6,1.6,64,0.02,CLR,SKC,0.04,WeatherDisplay:10.37,2013-03-28 05:59:00,
2013-03-28 17:04:00,55.9,43.5,29.94,South,180,3.4,3.4,63,0.02,CLR,SKC,0.04,WeatherDisplay:10.37,2013-03-28 06:04:00,
2013-03-28 17:10:00,56.1,43.3,29.94,WSW,241,5.0,6.0,62,0.00,CLR,SKC,0.04,WeatherDisplay:10.37,2013-03-28 06:10:00,
2013-03-28 17:15:00,56.1,42.4,29.94,SSW,202,3.5,3.5,60,0.02,CLR,SKC,0.04,WeatherDisplay:10.37,2013-03-28 06:15:00,
2013-03-28 17:20:00,56.5,41.4,29.94,SSW,202,5.8,5.8,57,0.02,CLR,SKC,0.04,WeatherDisplay:10.37,2013-03-28 06:20:00,
2013-03-28 17:25:00,56.8,40.4,29.95,SW,225,4.9,4.9,54,0.02,CLR,SKC,0.04,WeatherDisplay:10.37,2013-03-28 06:25:00,
2013-03-28 17:30:00,57.0,41.0,29.95,WNW,292,3.5,3.5,55,0.02,CLR,SKC,0.04,WeatherDisplay:10.37,2013-03-28 06:30:00,
2013-03-28 17:35:00,56.8,40.4,29.96,SW,225,5.8,5.8,54,0.02,CLR,SKC,0.04,WeatherDisplay:10.37,2013-03-28 06:35:00,
2013-03-28 17:40:00,56.5,41.0,29.96,North,0,2.5,2.5,56,0.00,CLR,SKC,0.04,WeatherDisplay:10.37,2013-03-28 06:40:00,
2013-03-28 17:45:00,56.1,40.6,29.97,SSE,158,8.1,8.1,56,0.00,CLR,SKC,0.04,WeatherDisplay:10.37,2013-03-28 06:45:00,
2013-03-28 17:50:00,55.6,40.6,29.97,SW,225,6.9,6.9,57,0.00,CLR,SKC,0.04,WeatherDisplay:10.37,2013-03-28 06:50:00,
2013-03-28 17:55:00,55.4,40.4,29.97,West,270,6.9,6.9,57,0.00,CLR,SKC,0.04,WeatherDisplay:10.37,2013-03-28 06:55:00,
2013-03-28 18:00:00,55.2,41.1,29.98,NE,45,0.0,0.3,59,0.00,CLR,SKC,0.04,WeatherDisplay:10.37,2013-03-28 07:00:00,
2013-03-28 18:06:00,54.9,40.4,29.98,SSW,202,8.1,8.1,58,0.00,CLR,SKC,0.04,WeatherDisplay:10.37,2013-03-28 07:06:00,
2013-03-28 18:11:00,54.5,40.0,29.99,SW,225,2.3,2.3,58,0.00,CLR,SKC,0.04,WeatherDisplay:10.37,2013-03-28 07:11:00,
2013-03-28 18:16:00,54.3,39.8,29.99,SSW,202,5.8,5.8,58,0.00,CLR,SKC,0.04,WeatherDisplay:10.37,2013-03-28 07:16:00,
2013-03-28 18:21:00,54.0,39.1,29.99,WSW,248,8.1,8.1,57,0.00,CLR,SKC,0.04,WeatherDisplay:10.37,2013-03-28 07:21:00,
2013-03-28 18:26:00,53.8,38.9,29.99,ESE,112,8.9,8.9,57,0.00,CLR,SKC,0.04,WeatherDisplay:10.37,2013-03-28 07:26:00,
2013-03-28 18:31:00,53.6,39.2,30.00,SSE,158,3.5,0.0,58,0.00,CLR,SKC,0.04,WeatherDisplay:10.37,2013-03-28 07:31:00,
2013-03-28 18:36:00,53.2,38.8,30.00,South,180,5.1,5.1,58,0.00,CLR,SKC,0.04,WeatherDisplay:10.37,2013-03-28 07:36:00,
2013-03-28 18:41:00,53.1,38.7,30.00,South,180,0.0,0.0,58,0.00,CLR,SKC,0.04,WeatherDisplay:10.37,2013-03-28 07:41:00,
2013-03-28 18:47:00,52.9,38.9,30.00,NNW,338,2.3,2.3,59,0.00,CLR,SKC,0.04,WeatherDisplay:10.37,2013-03-28 07:47:00,
2013-03-28 18:52:00,52.7,38.8,30.00,South,180,5.8,5.8,59,0.00,CLR,SKC,0.04,WeatherDisplay:10.37,2013-03-28 07:52:00,
2013-03-28 18:57:00,52.7,38.8,30.00,SW,225,5.8,5.8,59,0.00,CLR,SKC,0.04,WeatherDisplay:10.37,2013-03-28 07:57:00,
2013-03-28 19:02:00,52.5,38.6,30.00,South,180,4.0,4.0,59,0.00,CLR,SKC,0.04,WeatherDisplay:10.37,2013-03-28 08:02:00,
2013-03-28 19:07:00,52.3,38.9,30.00,South,180,2.3,2.3,60,0.00,CLR,SKC,0.04,WeatherDisplay:10.37,2013-03-28 08:07:00,
2013-03-28 19:12:00,52.2,38.7,30.01,WNW,292,0.0,0.0,60,0.00,CLR,SKC,0.04,WeatherDisplay:10.37,2013-03-28 08:12:00,
2013-03-28 19:17:00,51.8,38.8,30.01,SSW,202,3.5,3.5,61,0.00,CLR,SKC,0.04,WeatherDisplay:10.37,2013-03-28 08:17:00,
2013-03-28 19:23:00,51.6,39.0,30.01,SSW,202,2.3,2.3,62,0.00,CLR,SKC,0.04,WeatherDisplay:10.37,2013-03-28 08:23:00,
2013-03-28 19:28:00,51.6,39.0,30.01,SSE,158,0.0,0.0,62,0.00,CLR,SKC,0.04,WeatherDisplay:10.37,2013-03-28 08:28:00,
2013-03-28 19:33:00,51.4,39.3,30.01,SSW,202,2.3,2.3,63,0.00,CLR,SKC,0.04,WeatherDisplay:10.37,2013-03-28 08:33:00,
2013-03-28 19:38:00,51.1,38.9,30.02,WNW,292,0.0,0.0,63,0.00,CLR,SKC,0.04,WeatherDisplay:10.37,2013-03-28 08:38:00,
2013-03-28 19:44:00,51.1,38.9,30.02,SW,225,1.1,1.1,63,0.00,CLR,SKC,0.04,WeatherDisplay:10.37,2013-03-28 08:44:00,
2013-03-28 19:49:00,51.1,39.3,30.02,SSE,158,1.1,0.0,64,0.00,CLR,SKC,0.04,WeatherDisplay:10.37,2013-03-28 08:49:00,
2013-03-28 19:54:00,50.9,39.1,30.03,West,270,1.1,1.1,64,0.00,CLR,SKC,0.04,WeatherDisplay:10.37,2013-03-28 08:54:00,
2013-03-28 19:59:00,50.9,39.1,30.03,SSE,158,1.1,1.1,64,0.00,CLR,SKC,0.04,WeatherDisplay:10.37,2013-03-28 08:59:00,
2013-03-28 20:04:00,50.7,39.0,30.03,SSE,158,2.3,2.3,64,0.00,CLR,SKC,0.04,WeatherDisplay:10.37,2013-03-28 09:04:00,
2013-03-28 20:10:00,50.5,38.8,30.03,South,187,2.0,2.0,64,0.00,CLR,SKC,0.04,WeatherDisplay:10.37,2013-03-28 09:10:00,
2013-03-28 20:15:00,50.4,39.0,30.03,SSW,209,2.0,2.0,65,0.00,CLR,SKC,0.04,WeatherDisplay:10.37,2013-03-28 09:15:00,
2013-03-28 20:20:00,50.2,38.9,30.03,SSW,209,0.0,2.0,65,0.00,CLR,SKC,0.04,WeatherDisplay:10.37,2013-03-28 09:20:00,
2013-03-28 20:25:00,49.8,38.9,30.04,SW,227,1.0,2.0,66,0.00,CLR,SKC,0.04,WeatherDisplay:10.37,2013-03-28 09:25:00,
2013-03-28 20:30:00,49.8,38.9,30.04,WSW,239,0.0,0.0,66,0.00,CLR,SKC,0.04,WeatherDisplay:10.37,2013-03-28 09:30:00,
2013-03-28 20:35:00,49.8,39.3,30.04,WSW,241,0.0,0.0,67,0.00,CLR,SKC,0.04,WeatherDisplay:10.37,2013-03-28 09:35:00,
2013-03-28 20:40:00,49.6,39.1,30.04,WSW,253,0.0,1.0,67,0.00,CLR,SKC,0.04,WeatherDisplay:10.37,2013-03-28 09:40:00,
2013-03-28 20:45:00,49.6,39.1,30.05,South,184,1.0,2.0,67,0.00,CLR,SKC,0.04,WeatherDisplay:10.37,2013-03-28 09:45:00,
2013-03-28 20:50:00,49.6,39.5,30.05,South,186,0.0,2.0,68,0.00,CLR,SKC,0.04,WeatherDisplay:10.37,2013-03-28 09:50:00,
2013-03-28 20:55:00,49.6,39.5,30.05,NW,315,0.0,0.0,68,0.00,CLR,SKC,0.04,WeatherDisplay:10.37,2013-03-28 09:55:00,
2013-03-28 21:00:00,49.3,39.2,30.05,WSW,248,1.6,1.6,68,0.00,CLR,SKC,0.04,WeatherDisplay:10.37,2013-03-28 10:00:00,
2013-03-28 21:05:00,49.3,39.5,30.05,SW,225,0.0,0.0,69,0.00,CLR,SKC,0.04,WeatherDisplay:10.37,2013-03-28 10:05:00,
2013-03-28 21:10:00,49.1,39.4,30.06,SSW,202,1.6,1.6,69,0.00,CLR,SKC,0.04,WeatherDisplay:10.37,2013-03-28 10:10:00,
2013-03-28 21:15:00,49.1,39.7,30.06,SSW,202,2.3,2.3,70,0.00,CLR,SKC,0.04,WeatherDisplay:10.37,2013-03-28 10:15:00,
2013-03-28 21:20:00,49.1,39.7,30.06,WSW,248,0.0,0.0,70,0.00,CLR,SKC,0.04,WeatherDisplay:10.37,2013-03-28 10:20:00,
2013-03-28 21:25:00,48.9,39.6,30.06,NW,315,0.0,0.0,70,0.00,CLR,SKC,0.04,WeatherDisplay:10.37,2013-03-28 10:25:00,
2013-03-28 21:30:00,48.9,39.9,30.06,SW,225,0.0,0.0,71,0.00,CLR,SKC,0.04,WeatherDisplay:10.37,2013-03-28 10:30:00,
2013-03-28 21:35:00,48.7,39.4,30.07,West,270,0.0,0.0,70,0.00,CLR,SKC,0.04,WeatherDisplay:10.37,2013-03-28 10:35:00,
2013-03-28 21:41:00,48.7,39.8,30.07,West,270,0.0,0.0,71,0.00,CLR,SKC,0.04,WeatherDisplay:10.37,2013-03-28 10:41:00,
2013-03-28 21:46:00,48.6,39.6,30.06,SSW,202,0.0,0.0,71,0.00,CLR,SKC,0.04,WeatherDisplay:10.37,2013-03-28 10:46:00,
2013-03-28 21:51:00,48.4,39.4,30.07,NE,45,0.0,0.0,71,0.00,CLR,SKC,0.04,WeatherDisplay:10.37,2013-03-28 10:51:00,
2013-03-28 21:57:00,48.2,39.2,30.07,ENE,68,0.0,0.0,71,0.00,CLR,SKC,0.04,WeatherDisplay:10.37,2013-03-28 10:57:00,
2013-03-28 22:02:00,48.0,39.1,30.07,West,270,0.0,0.0,71,0.00,CLR,SKC,0.04,WeatherDisplay:10.37,2013-03-28 11:02:00,
2013-03-28 22:07:00,47.8,38.9,30.07,ENE,68,0.0,0.0,71,0.00,CLR,SKC,0.04,WeatherDisplay:10.37,2013-03-28 11:07:00,
2013-03-28 22:12:00,47.8,38.9,30.07,NNE,22,0.0,0.0,71,0.00,CLR,SKC,0.04,WeatherDisplay:10.37,2013-03-28 11:12:00,
2013-03-28 22:17:00,47.5,38.5,30.07,NW,315,0.0,0.0,71,0.00,CLR,SKC,0.04,WeatherDisplay:10.37,2013-03-28 11:17:00,
2013-03-28 22:22:00,47.1,38.6,30.06,NNW,338,0.0,0.0,72,0.00,CLR,SKC,0.04,WeatherDisplay:10.37,2013-03-28 11:22:00,
2013-03-28 22:27:00,47.1,38.6,30.06,NNW,338,0.0,0.0,72,0.00,CLR,SKC,0.04,WeatherDisplay:10.37,2013-03-28 11:27:00,
2013-03-28 22:32:00,46.9,38.4,30.08,ENE,68,0.0,0.0,72,0.00,CLR,SKC,0.04,WeatherDisplay:10.37,2013-03-28 11:32:00,
2013-03-28 22:38:00,46.8,38.2,30.07,North,0,0.0,0.0,72,0.00,CLR,SKC,0.04,WeatherDisplay:10.37,2013-03-28 11:38:00,
2013-03-28 22:43:00,46.6,38.0,30.07,WSW,248,0.0,0.0,72,0.00,CLR,SKC,0.04,WeatherDisplay:10.37,2013-03-28 11:43:00,
2013-03-28 22:48:00,46.2,38.0,30.07,SW,225,0.0,0.0,73,0.00,CLR,SKC,0.04,WeatherDisplay:10.37,2013-03-28 11:48:00,
2013-03-28 22:53:00,46.2,38.0,30.07,SW,225,0.0,0.0,73,0.00,CLR,SKC,0.04,WeatherDisplay:10.37,2013-03-28 11:53:00,
2013-03-28 22:58:00,46.0,37.9,30.07,WSW,248,0.0,0.0,73,0.00,CLR,SKC,0.04,WeatherDisplay:10.37,2013-03-28 11:58:00,
2013-03-28 23:03:00,46.0,37.9,30.07,West,270,0.0,0.0,73,0.00,CLR,SKC,0.04,WeatherDisplay:10.37,2013-03-28 12:03:00,
2013-03-28 23:08:00,46.0,38.2,30.07,West,270,0.0,0.0,74,0.00,CLR,SKC,0.04,WeatherDisplay:10.37,2013-03-28 12:08:00,
2013-03-28 23:14:00,46.2,38.4,30.07,West,270,0.0,0.0,74,0.00,CLR,SKC,0.04,WeatherDisplay:10.37,2013-03-28 12:14:00,
2013-03-28 23:19:00,46.2,38.4,30.06,WSW,248,0.0,0.0,74,0.00,CLR,SKC,0.04,WeatherDisplay:10.37,2013-03-28 12:19:00,
2013-03-28 23:24:00,46.2,38.4,30.07,WSW,248,0.0,0.0,74,0.00,CLR,SKC,0.04,WeatherDisplay:10.37,2013-03-28 12:24:00,
2013-03-28 23:29:00,46.2,38.4,30.07,North,0,0.0,0.0,74,0.00,CLR,SKC,0.04,WeatherDisplay:10.37,2013-03-28 12:29:00,
2013-03-28 23:34:00,46.2,38.4,30.07,ENE,68,0.0,0.0,74,0.00,CLR,SKC,0.04,WeatherDisplay:10.37,2013-03-28 12:34:00,
2013-03-28 23:39:00,46.0,38.2,30.07,NNE,22,0.0,0.0,74,0.00,CLR,SKC,0.04,WeatherDisplay:10.37,2013-03-28 12:39:00,
2013-03-28 23:44:00,46.0,38.2,30.07,NNE,22,0.0,0.0,74,0.00,CLR,SKC,0.04,WeatherDisplay:10.37,2013-03-28 12:44:00,
2013-03-28 23:50:00,46.0,38.2,30.07,NNE,25,0.0,0.0,74,0.00,CLR,SKC,0.04,WeatherDisplay:10.37,2013-03-28 12:50:00,
2013-03-28 23:55:00,46.0,38.6,30.07,NNE,32,0.0,0.0,75,0.00,CLR,SKC,0.04,WeatherDisplay:10.37,2013-03-28 12:55:00,